Probability
0 0 0 0 0 0 0 0 0 0 0 0 0 0 0 0 0 0 0 0 0 0 0 0 0 0 0 0 0 0 0 0 0 0 0 0 0 0
0 0 0 0 0 0 0 0 0 0 0 0 0 0 0 0 0 0 0 0 0 0 0 0 0 0 0 0 0 0 0 0 0 0 0 0 0 0
0 0 0 0 0 0 0 0 0 0 0 0 0 0 0 0 0 0 0 0 0 0 0 0 0 0 0 0 0 0 0 0 0 0 0 0 0 0
0 0 0 0 0 0 0 0 0 0 0 0 0 0 0 0 0 0 0 0 0 0 0 0 0 0 0 0 0 0 0 0 0 0 0 0 0 0
0 0 0 0 0 0 0 0 0 0 0 0 0 0 0 0 0 0 0 0 0 0 0 0 0 0 0 0 0 0 0 0 0 0 0 0 0 0
0 0 0 0 0 0 0 0 0 0 0 0 0 0 0 0 0 0 0 0 0 0 0 0 0 0 0 0 0 0 0 0 0 0 0 0 0 0
0 0 0 0 0 0 0 0 0 0 0 0 0 0 0 0 0 0 0 0 0 0 0 0 0 0 0 0 0 0 0 0 0 0 0 0 0 0
0 0 0 0 0 0 0 0 0 0 0 0 0 0 0 0 0 0 0 0 0 0 0 0 0 0 0 0 0 0 0 0 0 0 0 0 0 0
0 0 0 0 0 0 0 0 0 0 0 0 0 0 0 0 0 0 0 0 0 0 0 0 0 0 0 0 0 0 0 0 0 0 0 0 0 0
0 0 0 0 0 0 0 0 0 0 0 0 0 0 0 0 0 0 0 0 0 0 0 0 0 0 0 0 0 0 0 0 0 0 0 0 0 0
0 0 0 0 0 0 0 0 0 0 0 0 0 0 0 0 0 0 0 0 0 0 0 0 0 0 0 0 0 0 0 0 0 0 0 0 0 0
0 0 0 0 0 0 0 0 0 0 0 0 0 0 0 0 0 0 0 0 0 0 0 0 0 0 0 0 0 0 0 0 0 0 0 0 0 0
0 0 0 0 0 0 0 0 0 0 0 0 0 0 0 0 0 0 0 0 0 0 0 0 0 0 0 0 0 0 0 0 0 0 0 0 0 0
0 0 0 0 0 0 0 0 0 0 0 0 0 0 0 0 0 0 0 0 0 0 0 0 0 0 0 0 0 0 0 0 0 0 0 0 0 0
0 0 0 0 0 0 0 0 0 0 0 0 0 0 0 0 0 0 0 0 0 0 0 0 0 0 0 0 0 0 0 0 0 0 0 0 0 0
0 0 0 0 0 0 0 0 0 0 0 0 0 0 0 0 0 0 0 0 0 0 0 0 0 0 0 0 0 0 0 0 0 0 0 0 0 0
0 0 0 0 0 0 0 0 0 0 0 0 0 0 0 0 0 0 0 0 0 0 0 0 0 0 0 0 0 0 0 0 0 0 0 0 0 0
0 0 0 0 0 0 0 0 0 0 0 0 0 0 0 0 0 0 0 0 0 0 0 0 0 0 0 0 0 0 0 0 0 0 0 0 0 0
0 0 0 0 0 0 0 0 0 0 0 0 0 0 0 0 0 0 0 0 0 0 0 0 0 0 0 0 0 0 0 0 0 0 0 0 0 0
0 0 0 0 0 0 0 0 0 0 0 0 0 0 0 0 0 0 0 0 0 0 0 0 0 0 0 0 0 0 0 0 0 0 0 0 0 0
0 0 0 0 0 0 0 0 0 0 0 0 0 0 0 0 0 0 0 0 0 0 0 0 0 0 0 0 0 0 0 0 0 0 0 0 0 0
0 0 0 0 0 0 0 0 0 0 0 0 0 0 0 0 0 0 0 0 0 0 0 0 0 0 0 0 0 0 0 0 0 0 0 0 0 0
0 0 0 0 0 0 0 0 0 0 0 0 0 0 0 0 0 0 0 0 0 0 0 0 0 0 0 0 0 0 0 0 0 0 0 0 0 0
Wind_Speed
14 15 15 12 11 12 11 11 11 12 11 8 8 9 11 10 17 13 11 22 27 27 27 27 27 26 25 24 24 23 23 22 22 22 22 23 23 22
12 13 15 12 11 11 12 11 12 13 14 5 7 7 9 10 17 13 12 24 27 27 28 27 27 26 26 25 25 24 24 23 23 23 24 24 24 23
13 14 16 14 12 11 11 12 13 13 18 13 6 7 10 10 10 9 10 12 12 25 27 27 27 26 26 25 25 25 25 24 24 24 24 24 24 24
14 14 16 12 15 13 12 14 14 14 16 19 8 7 11 10 10 10 10 10 10 21 27 27 27 26 26 25 25 25 25 25 24 24 24 24 25 25
13 14 14 13 15 13 14 14 13 13 14 16 13 7 8 7 8 9 9 8 10 15 23 26 26 26 26 26 26 26 25 25 24 24 24 24 25 25
12 13 13 14 15 15 14 14 13 13 13 14 13 8 8 6 7 8 8 8 10 10 15 17 21 26 26 26 26 26 25 24 25 25 25 24 25 25
12 13 14 17 21 17 13 12 12 12 12 12 13 10 10 7 9 8 11 8 9 8 8 9 10 9 11 19 24 24 24 24 24 25 25 25 25 25
12 12 13 17 21 26 27 25 20 16 15 14 13 14 13 12 9 10 10 9 9 7 9 10 9 9 8 8 18 24 24 24 25 25 26 26 26 26
10 10 10 11 17 12 18 25 24 27 26 17 16 16 13 12 12 13 12 10 11 6 7 9 8 10 8 12 23 25 25 25 25 25 26 26 26 27
9 10 11 11 11 12 11 12 13 14 17 16 14 14 12 11 13 14 13 12 7 6 8 7 6 9 9 8 20 24 25 26 26 26 26 26 26 27
9 10 10 10 17 22 14 12 12 12 17 23 23 20 23 24 18 10 11 10 10 9 9 7 5 6 7 8 13 23 24 25 25 25 25 25 26 26
8 9 15 16 18 20 12 11 13 11 9 10 13 16 15 18 25 16 12 10 6 6 8 8 6 5 5 6 8 8 12 19 23 24 25 25 26 16
8 7 8 18 20 21 17 10 14 12 8 9 9 8 7 7 9 10 11 10 9 6 6 8 7 6 6 4 4 7 8 8 9 13 19 24 25 21
8 7 9 18 20 20 15 15 19 16 6 7 7 7 7 8 8 9 10 11 10 8 8 9 6 7 7 6 5 4 6 7 8 10 9 17 21 25
8 15 18 20 18 13 15 18 14 7 5 6 7 7 7 7 6 6 7 8 9 8 8 9 8 7 7 8 6 5 5 6 9 10 9 10 10 11
9 12 17 17 12 11 11 9 5 5 6 6 5 5 4 5 6 6 6 6 6 6 8 10 11 9 8 8 8 7 6 6 6 8 9 10 10 11
9 6 5 4 4 4 4 4 4 4 5 4 4 5 5 6 6 6 5 5 6 6 5 5 7 7 8 7 8 9 9 9 9 8 9 12 12 12
12 5 5 5 5 5 5 4 4 4 4 4 4 5 5 6 6 5 5 6 6 6 6 5 4 3 3 7 13 11 10 10 8 9 10 12 14 11
7 5 6 5 5 5 4 4 4 4 4 4 4 4 4 5 5 5 5 5 6 6 5 5 5 6 7 8 7 13 10 9 8 9 10 11 14 13
5 6 6 6 5 5 4 4 4 3 3 3 3 4 4 4 5 5 6 6 6 5 5 5 6 8 9 8 6 7 13 10 9 10 10 11 13 18
6 6 6 5 5 4 4 4 4 3 3 3 3 4 4 4 5 5 5 9 7 5 7 7 8 11 5 3 6 6 7 14 15 11 10 11 13 13
6 6 6 5 5 4 4 4 4 4 4 3 3 3 4 4 5 5 5 5 5 6 6 5 4 4 4 7 9 9 8 8 13 20 22 20 13 12
7 6 6 5 4 4 4 4 5 4 3 3 3 3 3 3 4 4 5 5 5 5 5 4 4 4 6 7 8 9 11 10 8 10 12 18 25 29
Wind_Direction
234 233 234 234 229 228 227 222 234 259 261 213 206 213 217 219 229 228 224 237 241 241 241 241 241 243 245 247 249 252 254 256 258 260 261 263 265 267
235 234 235 235 232 229 227 226 224 237 259 230 205 198 208 219 228 226 223 235 241 244 244 243 242 242 244 246 248 250 252 254 255 258 260 261 264 266
239 237 238 232 233 230 227 226 227 227 249 254 204 199 203 217 228 224 221 229 237 243 246 245 244 243 245 247 248 249 251 253 255 257 260 262 264 266
244 241 242 236 235 232 229 229 228 225 236 254 237 207 213 214 219 222 224 226 225 240 244 246 245 245 246 247 248 249 250 252 254 257 259 261 264 266
247 243 243 237 239 235 231 232 230 230 231 244 248 220 218 212 217 225 227 228 226 236 242 244 245 246 247 247 248 248 249 250 252 255 258 261 263 266
250 246 244 238 239 237 235 234 231 231 231 238 245 232 221 199 205 218 229 224 230 230 236 238 243 247 248 248 248 248 249 250 252 255 256 259 262 264
254 249 246 245 244 243 239 234 228 231 231 234 239 235 224 203 211 208 226 225 227 221 226 233 238 240 241 248 249 248 249 251 253 254 256 258 260 261
257 254 251 255 256 256 253 247 233 227 227 229 233 232 227 218 212 211 219 222 230 206 216 229 223 231 230 229 243 247 250 251 252 254 255 257 258 261
258 258 259 256 260 252 256 258 253 245 234 226 231 230 225 215 211 215 215 215 223 196 197 228 220 229 227 234 240 243 247 250 252 254 256 258 259 262
262 258 258 258 254 254 247 247 248 251 249 239 232 231 225 215 209 214 216 223 227 209 194 223 215 224 227 227 241 244 247 249 251 254 257 259 261 263
264 259 260 257 263 265 257 248 249 249 255 253 245 237 230 226 214 211 213 216 226 218 201 213 216 222 227 229 236 243 246 248 251 253 256 259 263 265
271 262 267 269 269 269 259 247 249 247 237 246 251 253 243 232 226 214 207 213 215 214 194 198 203 191 230 226 224 229 240 247 251 254 257 260 263 265
275 268 261 274 276 274 268 252 251 252 236 234 237 237 232 226 224 216 206 210 213 215 187 184 195 195 212 227 216 217 221 231 243 251 256 259 262 262
281 275 269 277 277 276 274 265 263 262 240 228 228 227 225 223 218 215 213 212 215 214 189 181 191 196 207 230 239 218 215 223 232 243 245 256 260 261
279 281 284 286 286 283 279 277 272 258 241 234 224 221 217 214 205 205 209 212 214 214 201 197 201 202 210 228 238 232 236 236 234 241 244 247 249 254
290 287 291 290 286 281 279 281 271 252 248 240 226 217 207 201 204 201 204 199 210 219 210 207 207 205 218 229 236 245 237 238 229 233 245 251 251 249
296 283 278 283 276 268 267 262 258 261 257 238 221 210 206 206 208 200 198 196 206 212 210 204 207 213 219 220 237 243 245 248 246 245 250 257 254 248
309 297 289 278 274 271 269 266 254 247 244 235 223 212 208 206 207 199 195 201 213 216 212 201 187 200 232 242 228 241 243 247 249 246 248 258 263 254
311 298 293 287 280 272 264 261 259 251 241 230 223 215 210 207 203 202 202 208 216 218 214 198 194 205 234 253 238 222 234 246 250 250 249 253 263 266
297 292 291 287 282 274 267 263 260 253 242 233 225 214 206 204 205 206 205 208 214 217 218 211 208 212 227 246 254 243 235 243 251 258 260 260 264 269
299 294 289 284 279 273 269 264 258 250 241 230 224 217 208 205 210 211 210 220 218 217 223 227 229 230 238 247 260 256 241 243 250 257 265 270 274 273
295 291 287 279 275 270 267 262 255 249 239 230 225 219 212 207 211 211 209 214 219 222 232 239 229 225 221 239 256 266 269 260 260 265 264 261 264 267
297 293 288 282 272 267 265 260 251 247 237 227 221 215 209 212 214 214 216 218 223 229 235 240 236 229 235 242 255 265 270 273 274 274 269 265 266 268